This demonstration page uses our WeatherBlox Daily Observations layout. Learn more.

Hourly Observations for December 7, 2018

Temp ( °F °C ) Dew Point ( °F °C ) Humidity (%) Winds ( mph kmh ) Pressure ( in mb ) Visibility ( mi km ) Precip ( " mm )
12:15 am 00:15 Cloudy 18 -8 17 -8.2 98 98 S 3 6 30.56 1035 10 16.0934 0 0
12:35 am 00:35 Cloudy 18 -7.8 17 -8.1 98 98 S 5 7 30.56 1035 10 16.0934 0 0
12:55 am 00:55 Mostly Cloudy 18 -8 17 -8.5 96 96 S 6 9 30.56 1035 10 16.0934 0 0
1:15 am 01:15 Clear 17 -8.3 16 -8.7 97 97 SSE 7 11 30.53 1034 10 16.0934 0 0
1:35 am 01:35 Clear 17 -8.3 16 -8.8 96 96 SSE 6 9 30.53 1034 10 16.0934 0 0
1:55 am 01:55 Partly Cloudy 17 -8.3 16 -8.7 97 97 SSE 6 9 30.53 1034 10 16.0934 0 0
2:15 am 02:15 Partly Cloudy 17 -8.5 16 -8.7 98 98 SSE 6 9 30.53 1034 10 16.0934 0 0
2:35 am 02:35 Clear 17 -8.4 17 -8.6 98 98 SSE 7 11 30.53 1034 10 16.0934 0 0
2:55 am 02:55 Clear 17 -8.3 17 -8.6 98 98 SSE 6 9 30.56 1035 10 16.0934 0 0
3:15 am 03:15 Clear 16 -8.9 16 -9.1 98 98 S 6 9 30.56 1035 10 16.0934 0 0
3:35 am 03:35 Clear 17 -8.6 16 -8.8 98 98 S 6 9 30.53 1034 10 16.0934 0 0
3:55 am 03:55 Clear 16 -9 16 -9.1 99 99 S 7 11 30.53 1034 10 16.0934 0 0
4:15 am 04:15 Clear 15 -9.7 14 -9.8 99 99 S 3 6 30.56 1035 10 16.0934 0 0
4:35 am 04:35 Clear 16 -8.7 16 -8.7 100 100 S 6 9 30.53 1034 10 16.0934 0 0
4:55 am 04:55 Clear 16 -8.7 16 -8.7 100 100 S 8 13 30.53 1034 10 16.0934 0 0
5:15 am 05:15 Clear 17 -8.5 17 -8.5 100 100 SSW 8 13 30.53 1034 10 16.0934 0 0
5:35 am 05:35 Clear 17 -8.5 17 -8.5 100 100 SSW 6 9 30.53 1034 10 16.0934 0 0
5:55 am 05:55 Clear 17 -8.1 17 -8.3 98 98 SSW 6 9 30.53 1034 10 16.0934 0 0
6:15 am 06:15 Clear 17 -8.4 17 -8.6 98 98 S 6 9 30.53 1034 10 16.0934 0 0
6:35 am 06:35 Clear 16 -9.1 15 -9.3 98 98 S 3 6 30.53 1034 10 16.0934 0 0
6:55 am 06:55 Clear 17 -8.5 17 -8.6 99 99 S 6 9 30.53 1034 10 16.0934 0 0
7:15 am 07:15 Clear 17 -8.3 17 -8.5 98 98 SSW 7 11 30.53 1034 10 16.0934 0 0
7:35 am 07:35 Clear 17 -8.5 17 -8.6 99 99 SSW 7 11 30.56 1035 10 16.0934 0 0
7:55 am 07:55 Sunny 17 -8.5 17 -8.6 99 99 SSW 8 13 30.56 1035 7 11.26538 0 0
8:15 am 08:15 Sunny 17 -8.4 17 -8.5 99 99 SSW 7 11 30.56 1035 7 11.26538 0 0
8:35 am 08:35 Sunny 17 -8.3 17 -8.5 98 98 SSW 9 15 30.56 1035 7 11.26538 0 0
8:55 am 08:55 Sunny 17 -8.1 17 -8.4 98 98 SSW 9 15 30.56 1035 7 11.26538 0 0
9:15 am 09:15 Sunny 19 -7.4 19 -7.5 99 99 SSW 8 13 30.56 1035 10 16.0934 0 0
9:35 am 09:35 Sunny 20 -6.7 19 -7 98 98 SSW 6 9 30.56 1035 10 16.0934 0 0
9:55 am 09:55 Sunny 21 -6.1 20 -6.7 96 96 SSW 7 11 30.56 1035 10 16.0934 0 0
10:15 am 10:15 Sunny 22 -5.4 21 -6.1 95 95 SSW 7 11 30.53 1034 10 16.0934 0 0
10:35 am 10:35 Sunny 23 -4.8 21 -6 91 91 SW 13 20 30.53 1034 10 16.0934 0 0
10:55 am 10:55 Sunny 24 -4.5 21 -6 89 89 SW 12 19 30.56 1035 10 16.0934 0 0
11:15 am 11:15 Sunny 25 -4.1 22 -5.8 88 88 SSW 12 19 30.53 1034 10 16.0934 0 0
11:35 am 11:35 Sunny 25 -3.8 21 -5.9 86 86 SW 12 19 30.53 1034 10 16.0934 0 0
11:55 am 11:55 Sunny 26 -3.4 22 -5.6 85 85 SW 9 15 30.53 1034 10 16.0934 0 0
12:15 pm 12:15 Sunny 26 -3.3 22 -5.7 84 84 SW 10 17 30.53 1034 10 16.0934 0 0
12:35 pm 12:35 Sunny 27 -3 22 -5.5 83 83 SW 9 15 30.48 1032 10 16.0934 0 0
12:55 pm 12:55 Sunny 28 -2.5 23 -5.2 82 82 SSW 10 17 30.48 1032 10 16.0934 0 0
1:15 pm 13:15 Sunny 28 -2.2 23 -5 81 81 SSW 8 13 30.48 1032 10 16.0934 0 0
1:35 pm 13:35 Sunny 28 -2 23 -5 80 80 SSW 8 13 30.48 1032 10 16.0934 0 0
1:55 pm 13:55 Sunny 29 -1.9 23 -5 80 80 SW 6 9 30.48 1032 10 16.0934 0 0
2:15 pm 14:15 Sunny 29 -1.7 23 -5 78 78 SW 7 11 30.45 1031 10 16.0934 0 0
2:35 pm 14:35 Sunny 30 -1.3 24 -4.6 79 79 SSW 7 11 30.45 1031 10 16.0934 0 0
2:55 pm 14:55 Sunny 30 -1.2 24 -4.5 79 79 S 5 7 30.45 1031 10 16.0934 0 0
3:15 pm 15:15 Sunny 30 -1.1 24 -4.5 78 78 SW 5 7 30.48 1032 10 16.0934 0 0
3:35 pm 15:35 Sunny 30 -1 23 -5 75 75 SW 5 7 30.45 1031 10 16.0934 0 0
3:55 pm 15:55 Sunny 30 -1.2 23 -5.1 75 75 WNW 6 9 30.45 1031 10 16.0934 0 0
4:15 pm 16:15 Sunny 29 -1.6 23 -5.1 77 77 WNW 5 7 30.48 1032 10 16.0934 0 0
4:35 pm 16:35 Sunny 28 -2 23 -5.2 79 79 Calm 30.48 1032 10 16.0934 0 0
4:55 pm 16:55 Sunny 28 -2.4 22 -5.5 80 80 Calm 30.48 1032 10 16.0934 0 0
5:15 pm 17:15 Clear 25 -3.7 22 -5.7 86 86 Calm 30.53 1034 10 16.0934 0 0
5:35 pm 17:35 Clear 24 -4.2 22 -5.8 89 89 Calm 30.53 1034 10 16.0934 0 0
5:55 pm 17:55 Clear 22 -5.5 20 -6.4 93 93 Calm 30.53 1034 10 16.0934 0 0
6:15 pm 18:15 Clear 20 -6.6 19 -7.2 96 96 Calm 30.56 1035 10 16.0934 0 0
6:35 pm 18:35 Clear 21 -6.3 20 -6.7 97 97 Calm 30.56 1035 10 16.0934 0 0
6:55 pm 18:55 Clear 19 -7.4 18 -8 96 96 Calm 30.56 1035 7 11.26538 0 0
7:15 pm 19:15 Clear with Mist and Fog 17 -8.5 17 -8.6 99 99 Calm 30.56 1035 5 8.0467 0 0
7:35 pm 19:35 Clear 16 -9 16 -9 100 100 Calm 30.59 1036 7 11.26538 0 0
7:55 pm 19:55 Clear with Mist and Fog 14 -9.8 14 -9.9 99 99 Calm 30.59 1036 4 6.43736 0 0
8:15 pm 20:15 Clear with Mist and Fog 15 -9.6 15 -9.6 100 100 N 3 6 30.59 1036 5 8.0467 0 0
8:35 pm 20:35 Clear with Mist and Fog 15 -9.5 15 -9.5 100 100 Calm 30.59 1036 2.5 4.02335 0 0
8:55 pm 20:55 Clear with Mist and Fog 14 -9.8 14 -9.9 99 99 Calm 30.59 1036 2.5 4.02335 0 0
9:15 pm 21:15 Clear with Mist and Fog 13 -10.5 13 -10.7 98 98 Calm 30.59 1036 3 4.82802 0 0
9:35 pm 21:35 Mostly Cloudy with Freezing Fog 13 -10.4 13 -10.5 99 99 Calm 30.56 1035 0.5 0.80467 0 0
9:55 pm 21:55 Cloudy with Freezing Fog 13 -10.8 12 -10.9 99 99 Calm 30.59 1036 0.5 0.80467 0 0
10:15 pm 22:15 Cloudy with Mist and Fog 14 -10.2 13 -10.4 98 98 Calm 30.59 1036 1 1.60934 0 0
10:35 pm 22:35 Mostly Cloudy with Mist and Fog 12 -11.3 11 -11.7 97 97 Calm 30.59 1036 4 6.43736 0 0
10:55 pm 22:55 Cloudy with Mist and Fog 9 -13 8 -13.5 96 96 Calm 30.62 1037 4 6.43736 0 0
11:15 pm 23:15 Cloudy with Freezing Fog 10 -12.5 9 -13 96 96 Calm 30.62 1037 0.25 0.402335 0 0
11:35 pm 23:35 Cloudy with Freezing Fog N/A N/A N/A Calm N/A 0.25 0.402335 0 0
11:55 pm 23:55 Cloudy with Fog N/A N/A N/A Calm N/A 0.5 0.80467 0 0

Powered by AerisWeather